Preview of NWS' New Version of Forecast
This preview is not operational and should not be used for support decisions.

Regional Weather Roundup (RWR)

Issued by National Weather Service (NWS)

                            
000
ASUS43 KTOP 222259
RWRKS 

WEATHER ROUNDUP FOR KANSAS
NATIONAL WEATHER SERVICE GOODLAND KS
500 PM CST FRI FEB 22 2019

NOTE:  "FAIR" INDICATES FEW OR NO CLOUDS BELOW 12,000 FEET WITH NO
SIGNIFICANT WEATHER AND/OR OBSTRUCTIONS TO VISIBILITY.

KSZ001>006-013>018-027>032-041>047-230000-
NORTHWEST KANSAS
  
CITY           SKY/WX    TMP DP  RH WIND       PRES   REMARKS
GOODLAND       MIX PCPN  33  33 100 SE16      29.79S VSB 1/4 WCI  23  
HAYS           CLOUDY    34  34 100 E14       29.93F FOG     WCI  24  
HILL CITY      CLOUDY    32  32 100 E12       29.90F FOG     WCI  23  
RUSSELL        FOG       33  33 100 E7        29.94S VSB 3/4          
$$

KSZ061>065-074>080-084>089-230000-
SOUTHWEST KANSAS
  
CITY           SKY/WX    TMP DP  RH WIND       PRES   REMARKS
DODGE CITY     CLOUDY    39  35  86 SE12      29.87F FOG     WCI  32  
GARDEN CITY    CLOUDY    39  36  89 SE15      29.83F WCI  31          
GREAT BEND     CLOUDY    34  32  92 E9        29.93F                  
LIBERAL        CLOUDY    44  37  76 SE12      29.83F                  
$$

KSZ066>073-081>083-090>101-230000-
SOUTHEAST KANSAS
  
CITY           SKY/WX    TMP DP  RH WIND       PRES   REMARKS
CHANUTE        CLOUDY    42  39  89 E12G22    30.02F FOG              
COFFEYVILLE    CLOUDY    42  41  96 E5        30.01F FOG              
HUTCHINSON     CLOUDY    37  37 100 E7        29.95F                  
MEDICINE LODGE   N/A     40  36  86 E5        29.92F                  
NEWTON         CLOUDY    38  36  92 E12       29.96R WCI  30          
PARSONS        CLOUDY    41  40  96 VRB6      30.02F FOG              
WICHITA INTL   CLOUDY    41  39  93 SE12      29.96S                  
WICHITA JABRA  CLOUDY    39  37  92 SE10      29.97R WCI  32          
WICHITA MCCONL CLOUDY    40  39  94 E8        29.96                   
WINFIELD       LGT RAIN  41  39  93 SE7       29.99R                  
$$

KSZ007>012-019>026-033>040-048>060-102>105-230000-
NORTHEAST KANSAS
  
CITY           SKY/WX    TMP DP  RH WIND       PRES   REMARKS
CONCORDIA      CLOUDY    36  30  79 E10       29.97F WCI  28          
EMPORIA        FOG       37  37 100 E12       29.99F VSB 3/4 WCI  29  
LAWRENCE       CLOUDY    37  32  82 E13       30.07F HAZE    WCI  29  
MANHATTAN      CLOUDY    39  33  79 E9        30.02F                  
OLATHE IND     CLOUDY    35  35 100 E8        30.06F FOG              
OLATHE EXE     CLOUDY    35  34  96 E8        30.06F FOG              
SALINA         CLOUDY    39  35  86 E10       29.97R WCI  32          
TOPEKA BILLARD CLOUDY    38  31  76 E8        30.07S                  
TOPEKA FORBES  CLOUDY    37  31  78 E10       30.05F WCI  30          
$$